KANOPUS-V 5 (43876 NORAD) Tracking and Keplerian Element Data

This shows tracking and keplerian element data for the satellite.

Feedback or suggestion? Click here.




ElementValue
Catalog43876
NameKANOPUS-V 5
Epoch Orbit188
Epoch Day21.8955391
Epoch Year2019
RAAN291.7912
Inclination97.4679
Eccentricity0.0003902
Argument of Perigee15.0097
Mean Anonmoly345.1252
Mean Motion15.19453101
Decay Rate1.19E-06
L11 43876U 18111A 19021.89553910 .00000119 00000-0 88373-5 0 9998
L22 43876 97.4679 291.7912 0003902 15.0097 345.1252 15.19453101 1888

Live tracking and technical data element details for KANOPUS-V 5 (NORAD 43876). KANOPUS-V 5 can be tracked NOW for your location showing map with azimuth and elevation plus other details from your city location.

Track the satellite on the map from your city or location and see movement details for azimuth, elevation, latitude, longitude, range, height, and movement on the map or in text.







IsCatalogInMostPopularTable: catalog: 43876, numindb: 17
Update: records affected: 1



GetName: 43876 KANOPUS-V 5

Hit Count: updated at: Wed, 23 Jan 2019 02:41:35 GMT